Weather History for KCLE - August, 2014

Change the Weather History Date:

Friday, August 1, 2014

  Actual Average Record
Temperature  
Mean Temperature 72 °F 73 °F  
Max Temperature 82 °F 82 °F 95 °F (1917)
Min Temperature 61 °F 64 °F 47 °F (1952)
Degree Days  
Heating Degree Days 0 0  
Month to date heating degree days 0 0  
Since 1 June heating degree days 34 46  
Since 1 July heating degree days 14 4  
Cooling Degree Days 7 8  
Month to date cooling degree days 7 8  
Year to date cooling degree days 407 500  
Since 1 June cooling degree days 341 441  
Growing Degree Days 22 (Base 50)    
Moisture  
Dew Point 60 °F    
Average Humidity 68    
Maximum Humidity 84    
Minimum Humidity 51    
Precipitation  
Precipitation T in 0.12 in 0.92 in (1979)
Month to date precipitation T 0.12  
Year to date precipitation 26.52 22.15  
Snow  
Snow 0.00 in 0.00 in - ()
Month to date snowfall 0.0 0.0  
Since 1 June snowfall 0.0 0.0  
Since 1 July snowfall 0.0 0.0  
Snow Depth 0.00 in    
Sea Level Pressure  
Sea Level Pressure 30.11 in    
Wind  
Wind Speed 5 mph (South)    
Max Wind Speed 14 mph    
Max Gust Speed 16 mph    
Visibility 10 miles    
Events Rain , Thunderstorm    
T = Trace of Precipitation, MM = Missing Value Source: NWS Daily Summary

Daily Weather History Graph

Daily Weather History Graph

Search for Another Location

Airport or City:

Trip Planner

Search our weather history database for the weather conditions in past years. The results will help you decide how hot, cold, wet, or windy it might be!

Date:

Astronomy

Aug. 01, 2014 Rise Set
Actual Time 6:22 AM EDT 8:44 PM EDT
Civil Twilight 5:51 AM EDT 9:15 PM EDT
Nautical Twilight 5:12 AM EDT 9:53 PM EDT
Astronomical Twilight 4:29 AM EDT 10:36 PM EDT
Moon 11:49 AM EDT 11:23 PM EDT
Length of Visible Light 15h 24m
Length of Day
14h 22m
Waxing Crescent, 27% of the Moon is Illuminated
Aug 1
Waxing Crescent
Aug 3
First Quarter
Aug 10
Full
Aug 17
Last Quarter
Aug 25
New

Hourly Weather History & Observations

Time (EDT) Temp. Heat Index Dew Point Humidity Pressure Visibility Wind Dir Wind Speed Gust Speed Precip Events Conditions
12:51 AM 66.0 °F - 57.0 °F 73% 30.10 in 10.0 mi South 5.8 mph - N/A   Scattered Clouds
1:51 AM 68.0 °F - 57.0 °F 68% 30.09 in 10.0 mi SSW 8.1 mph - N/A   Mostly Cloudy
2:51 AM 66.0 °F - 57.0 °F 73% 30.09 in 10.0 mi South 4.6 mph - N/A   Scattered Clouds
3:51 AM 64.9 °F - 57.9 °F 78% 30.09 in 10.0 mi Calm Calm - N/A   Scattered Clouds
4:51 AM 64.0 °F - 57.9 °F 80% 30.10 in 10.0 mi South 3.5 mph - N/A   Partly Cloudy
5:51 AM 63.0 °F - 57.0 °F 81% 30.11 in 10.0 mi South 4.6 mph - N/A   Scattered Clouds
6:51 AM 62.1 °F - 57.0 °F 84% 30.12 in 8.0 mi South 3.5 mph - N/A   Scattered Clouds
7:51 AM 66.2 °F - 57.2 °F 73% 30.15 in 10.0 mi SSW 6.9 mph - N/A   Mostly Cloudy
8:51 AM 68.0 °F - 59.0 °F 73% 30.14 in 10.0 mi SSW 6.9 mph - N/A   Partly Cloudy
9:51 AM 72.0 °F - 61.0 °F 68% 30.14 in 10.0 mi SW 4.6 mph - N/A   Clear
10:51 AM 75.2 °F - 62.6 °F 65% 30.15 in 10.0 mi SSW 5.8 mph - N/A   Clear
11:51 AM 78.1 °F - 62.1 °F 58% 30.14 in 10.0 mi SW 4.6 mph - N/A   Partly Cloudy
12:51 PM 79.0 °F - 60.1 °F 52% 30.13 in 10.0 mi SSW 8.1 mph - N/A   Partly Cloudy
1:51 PM 81.0 °F 81.6 °F 60.1 °F 49% 30.12 in 10.0 mi WNW 5.8 mph - N/A   Scattered Clouds
2:51 PM 81.0 °F 82.2 °F 63.0 °F 54% 30.12 in 9.0 mi Variable 5.8 mph - N/A   Scattered Clouds
3:51 PM 80.1 °F 81.5 °F 63.0 °F 56% 30.10 in 10.0 mi NNE 10.4 mph - N/A   Partly Cloudy
4:51 PM 80.6 °F 81.8 °F 62.6 °F 54% 30.11 in 9.0 mi North 9.2 mph - N/A   Scattered Clouds
5:51 PM 79.0 °F - 62.1 °F 56% 30.09 in 9.0 mi North 8.1 mph - N/A   Mostly Cloudy
6:51 PM 80.1 °F 81.2 °F 62.1 °F 54% 30.09 in 9.0 mi NNE 3.5 mph - N/A Thunderstorm Thunderstorm
7:43 PM 72.0 °F - 62.1 °F 71% 30.11 in 8.0 mi SE 9.2 mph - 0.00 in Rain Light Rain
7:51 PM 72.0 °F - 60.1 °F 66% 30.10 in 9.0 mi ESE 6.9 mph - 0.00 in   Overcast
8:51 PM 73.9 °F - 62.1 °F 66% 30.10 in 8.0 mi Calm Calm - N/A   Mostly Cloudy
9:51 PM 73.0 °F - 61.0 °F 66% 30.12 in 9.0 mi NNE 6.9 mph - N/A   Mostly Cloudy
10:51 PM 71.1 °F - 60.1 °F 68% 30.12 in 9.0 mi Calm Calm - N/A   Overcast
11:51 PM 69.8 °F - 62.6 °F 78% 30.12 in 9.0 mi SSE 3.5 mph - N/A   Overcast